Weather in Nicosia

Cyprus     35˚10′11″N   33˚21′34″E
temp.,
°C
wind,
m/s
gust,
m/s
humid.,
%
clouds,
%
prec.,
mm/h
press.,
hPa
HPBL,
m
2 december, wed
wed223:00+14˚e23814 0.9 1016152
02:00+14˚ene34852 1.9 1016184
05:00+13˚e348333 0.6 1016166
08:00+15˚ese127929 1.1 1017124
11:00+18˚ene336129 0.3 1018973
14:00+18˚ene225718 0.5 10171049
17:00+16˚ene55700 0.2 1018199
20:00+15˚e34800 0.6 1018170
3 december, thu
thu323:00+14˚e23840 1.0 1019153
02:00+14˚e45815 1.8 1019173
05:00+14˚e56810 0.1 1019205
08:00+15˚e510760 0.4 1019465
11:00+18˚e786587 0.3 1019961
14:00+18˚ene776393 0.3 1018996
17:00+16˚e5771100 0.0 1018280
20:00+15˚e577491 0.0 1018243
4 december, fri
fri423:00+15˚e6107696 1.1 1018353
02:00+15˚e697397 1.6 1017272
05:00+15˚e6874100 0.3 1017276
08:00+15˚e6107273 0.3 1017465
11:00+18˚e78611 0.1 1017837
14:00+18˚ene77620 0.2 1016846
17:00+16˚e687226 0.1 1016283
20:00+15˚e457663 0.1 1016176
5 december, sat
sat523:00+15˚e3576100 0.5 1016160
02:00+16˚ese3475100 1.6 101696
05:00+16˚e6973100 1.8 1015296
08:00+16˚e5873100 3.0 1016346
11:00+18˚ene566198 0.4 1016760
14:00+18˚ene336197 2.4 1015777
17:00+16˚ne2375100 1.8 1015134
20:00+15˚se2278100 3.1 101655
6 december, sun
sun623:00+14˚sw118031 0.1 101767
02:00+13˚wsw117816 0.1 1017108
05:00+13˚wsw12770 0.0 101752
08:00+15˚sw11730 0.0 101745
11:00+18˚wnw10560 0.0 1018577
14:00+19˚nnw22540 0.0 10161002
17:00+16˚n12760 0.0 101764
20:00+15˚sw11800 0.0 101872